Powrót do katalogu

STARLINK-6341

AktywnyŁącznośćVLEO
NORAD 56786·PAYLOAD·🇺🇸 United States

Wystrzelony May 31, 2023 z Vandenberg Space Force Base

Loading…

Następne Przeloty (najbliższe 24 godziny)

TLE

ŚwieżeSource: CelesTrak SupGP

Epoka: Sep 14, 2026, 22:25 UTC

1 56786C 23078V   26257.93451389  .00565970  00000+0  46148-1 0  2578
2 56786  70.0009 207.3537 0003259 268.4094 292.7325 14.99102507    18

Śledź STARLINK-6341 w czasie rzeczywistym z AllMySat

Download on the App Store